Location: *
(43.9900°N, 3.4811°E)
Time: 09:49:58
(UTC+00:00)

CZ-2C R/B - Pass Details

Date: 25 August 2019
Orbit: 639 x 705 km, 98.4° (Epoch: 20 October)

Event Time Altitude Azimuth Distance (km) Brightness Sun altitude
Rises 19:32:45 0° 9° (N) 3,074 7.4 -10.6°
Reaches altitude 10° 19:35:03 10° 6° (N) 2,144 6.6 -10.9°
Maximum altitude 19:39:39 58° 288° (WNW) 789 4.5 -11.7°
Drops below altitude 10° 19:44:08 10° 210° (SSW) 2,087 6.3 -12.4°
Sets 19:46:20 0° 206° (SSW) 2,986 7.0 -12.7°
